Theta_e
308 309 309 308 307 309 313 314 322 318 320 318 310 317 315 315 318 315 318 318 318 320 319 323 322 320 325 322 321 321 324 328 333 340 340 340 343 346 344 347 351 348 348 348
308 309 307 307 307 308 311 317 318 316 319 320 317 314 315 313 316 315 317 319 318 319 322 324 324 324 323 321 326 322 322 326 328 329 339 340 343 343 344 344 346 352 350 346
307 308 305 306 307 307 311 314 319 315 315 311 314 315 315 315 312 313 314 316 318 321 321 319 323 323 320 319 323 324 326 323 325 327 330 339 343 343 344 345 349 347 347 344
306 305 305 306 307 307 311 312 312 310 317 314 311 311 312 314 315 313 313 316 317 321 323 321 320 318 320 323 320 323 322 324 322 325 328 334 334 336 342 343 342 345 341 346
305 304 304 305 307 307 310 311 312 311 310 309 311 310 313 314 313 313 315 316 315 316 319 318 320 317 319 321 320 324 322 325 322 325 324 329 339 338 340 342 339 343 342 344
304 303 304 305 306 306 307 309 310 309 306 310 312 313 313 313 312 312 312 313 315 316 315 313 314 313 314 315 316 320 324 324 325 327 329 327 328 334 338 341 342 342 345 343
303 303 303 305 305 304 305 307 308 308 309 311 311 313 313 312 312 312 312 312 314 312 311 312 312 313 313 314 315 315 321 325 323 326 337 331 328 331 330 338 340 342 341 342
303 302 303 305 305 303 303 305 308 308 308 309 310 311 312 311 310 311 311 311 310 310 312 315 316 317 319 321 318 316 316 323 327 327 333 333 333 333 336 335 336 337 341 341
303 302 303 304 306 304 303 303 305 308 308 307 309 310 310 311 312 311 310 309 310 310 313 314 316 317 318 322 324 317 316 319 324 323 326 328 331 328 331 338 338 336 337 340
303 302 303 304 306 306 306 303 302 305 308 307 308 310 310 309 310 311 310 311 310 311 312 313 314 316 320 321 326 325 323 322 324 325 325 326 328 326 337 343 337 330 337 340
303 302 303 304 305 306 306 306 305 305 304 305 306 307 308 309 309 311 309 309 310 313 312 312 313 316 318 323 324 324 326 326 325 326 326 325 327 332 340 332 330 331 333 334
303 302 302 304 305 305 305 306 306 306 306 306 307 306 305 307 307 308 307 309 309 312 315 316 318 320 321 322 317 322 327 325 326 325 325 327 326 328 329 327 330 330 332 333
303 302 302 303 304 304 306 306 306 307 305 306 306 306 306 305 305 305 307 308 309 310 310 313 313 316 317 323 321 323 324 321 328 328 327 326 328 328 324 323 324 331 326 329
303 303 303 303 305 306 306 307 307 306 306 306 308 305 306 306 306 305 306 307 308 309 310 312 312 312 311 314 316 317 320 318 324 327 327 327 328 326 321 320 321 326 322 323
303 303 304 305 305 304 305 306 307 306 306 307 307 307 307 307 306 306 306 306 307 308 309 312 312 310 311 311 312 313 313 318 322 321 325 325 326 322 320 317 320 322 321 330
303 303 304 305 304 306 306 305 307 308 307 307 309 306 306 306 307 306 306 306 306 307 307 309 309 310 310 311 311 311 310 311 314 318 318 317 315 313 313 314 316 318 317 319
303 304 304 304 304 306 306 306 307 307 306 307 308 307 305 305 305 306 305 306 306 307 308 309 310 310 309 311 312 311 310 309 310 310 310 311 311 312 312 311 312 312 314 318
303 304 304 304 305 306 307 307 307 306 306 307 307 306 306 307 310 310 307 307 306 307 308 308 309 309 310 313 311 311 310 310 309 309 310 310 310 310 310 310 311 311 313 316
305 304 304 306 307 307 307 307 308 308 307 307 305 308 309 306 309 310 310 308 310 309 308 309 310 310 312 312 311 311 311 311 311 310 309 310 310 310 310 311 311 312 313 314
304 306 307 307 308 309 309 309 308 307 306 306 307 307 308 306 309 309 310 311 312 313 310 309 310 312 311 311 311 311 311 311 311 311 311 311 311 311 311 311 312 311 312 313
307 307 308 308 308 307 308 308 308 307 308 307 307 307 308 307 308 309 308 311 313 315 314 313 314 314 314 311 311 311 311 311 310 310 310 311 311 311 312 311 313 313 313 311
305 305 305 305 305 306 307 309 309 309 310 310 309 308 307 308 307 308 309 311 312 315 312 313 314 315 314 314 314 314 313 312 311 310 310 310 311 311 311 311 312 313 312 312
305 304 305 306 306 307 308 311 312 312 311 311 310 312 309 308 308 307 310 313 315 312 315 316 316 315 315 316 317 317 317 314 312 312 310 310 310 311 311 311 312 310 311 320
305 305 307 308 309 308 309 309 310 312 312 311 311 313 313 309 308 310 313 314 316 318 320 317 318 317 316 317 319 321 319 319 314 313 311 310 310 311 311 312 310 310 316 328
306 306 308 309 308 309 309 309 309 310 310 311 312 313 313 314 313 313 315 318 320 320 321 318 316 316 316 319 321 316 316 316 314 313 312 311 310 311 312 309 309 313 328 334
306 306 308 308 308 308 308 309 310 309 309 310 311 313 315 317 316 316 317 316 319 317 316 316 317 316 319 321 322 313 314 313 312 312 311 311 311 311 309 311 319 328 332 341
307 307 306 307 306 307 307 307 308 309 310 312 313 315 319 317 317 316 314 314 315 315 315 318 318 317 320 323 320 314 311 312 312 312 311 311 311 310 315 327 338 334 345 353
Wind_Speed
23 24 25 26 26 22 14 2 2 1 6 1 1 2 2 3 2 6 2 1 2 2 2 4 3 5 1 6 4 9 8 8 8 8 3 4 5 5 9 7 5 2 2 5
24 25 24 23 23 22 18 6 1 3 4 2 2 0 0 3 3 4 5 3 4 4 3 3 3 3 1 7 2 6 8 8 8 9 6 5 7 7 9 4 2 7 3 3
22 23 24 22 20 18 14 5 1 3 3 4 1 2 1 2 5 3 3 2 0 2 3 6 4 2 1 4 7 3 5 7 16 14 11 6 7 10 15 15 5 6 8 7
20 22 22 21 19 15 10 6 2 2 1 3 2 1 1 2 1 3 7 3 5 1 2 2 3 3 2 3 10 2 1 6 5 12 14 14 18 17 15 17 21 11 9 15
18 20 22 21 19 14 6 3 3 2 2 2 1 1 2 3 2 4 1 3 3 2 3 3 3 2 3 3 6 3 3 2 1 5 10 14 13 19 17 21 15 15 11 14
17 17 18 20 19 15 7 6 5 2 2 1 2 0 1 3 2 4 4 2 1 3 4 3 4 6 7 4 4 3 3 0 1 5 4 7 14 24 17 14 14 16 13 19
15 15 15 16 17 15 11 8 4 2 0 1 0 1 1 2 3 1 2 3 0 2 8 10 6 7 10 10 12 10 1 1 1 2 2 15 7 5 21 22 20 21 16 11
13 13 13 13 14 13 9 8 4 2 1 1 2 2 1 1 2 1 1 2 2 6 5 2 4 2 3 6 10 13 14 2 3 4 6 7 8 5 8 15 21 21 21 17
12 12 11 10 11 12 10 6 5 2 2 2 1 2 0 2 2 2 2 3 2 1 1 3 5 6 3 6 5 2 9 9 4 3 6 11 6 2 7 9 9 8 20 14
12 11 10 8 8 9 10 7 6 2 3 2 4 3 1 4 2 1 1 1 2 3 4 6 6 5 2 6 7 7 6 5 12 11 7 5 6 5 7 8 2 13 3 9
10 9 8 7 5 6 8 6 5 6 3 8 9 6 6 4 4 2 3 2 3 3 6 5 4 5 4 3 2 6 10 12 7 8 10 16 8 3 6 6 6 10 11 11
10 9 8 6 5 7 8 6 8 8 6 7 14 16 14 13 11 6 4 3 1 2 3 3 2 4 3 3 6 3 6 5 4 10 7 5 7 8 9 10 8 11 10 12
10 8 7 6 5 7 10 11 11 10 6 10 4 2 4 14 22 18 7 5 5 3 3 1 1 5 2 4 5 4 5 1 4 3 10 8 4 9 9 11 13 8 14 16
9 8 6 6 6 7 9 11 11 8 4 4 3 2 1 7 17 13 24 7 7 4 3 1 2 3 3 2 3 4 3 3 6 8 13 13 8 4 8 16 15 12 16 18
9 7 6 6 7 9 10 12 15 11 7 4 8 20 3 2 7 17 20 24 16 6 2 2 3 3 3 4 3 10 10 10 6 9 3 5 5 8 15 21 19 19 24 29
9 7 6 7 8 9 9 3 2 3 13 3 3 4 5 3 2 10 13 16 15 12 7 5 4 7 6 5 7 18 31 27 25 17 12 15 22 20 23 24 18 22 23 22
8 7 8 9 9 9 5 4 5 9 7 3 4 4 2 4 4 6 11 13 7 8 7 7 7 6 10 7 18 9 18 27 32 32 29 35 38 25 15 23 26 28 29 25
8 8 10 10 11 12 12 4 8 8 4 3 2 3 4 1 1 3 8 8 11 10 9 5 9 11 7 8 18 24 38 37 26 26 28 33 30 29 28 28 28 28 30 28
9 10 11 12 3 3 2 3 6 7 9 2 3 2 2 2 2 2 5 9 4 7 6 7 8 7 10 23 23 24 20 25 35 36 39 38 39 37 37 32 32 26 29 28
8 7 2 2 1 4 7 3 3 4 5 6 4 3 3 1 1 2 3 6 3 3 7 8 5 12 40 40 36 31 29 32 30 31 35 36 35 32 30 27 26 25 27 30
2 2 2 3 4 3 2 2 4 5 3 5 5 12 6 6 5 4 5 2 3 3 4 5 5 6 18 41 43 44 44 41 37 42 44 39 32 31 29 26 23 23 26 30
4 7 10 6 3 1 1 2 4 4 3 5 4 6 11 6 9 5 5 3 3 5 7 4 4 5 9 6 20 29 36 44 49 47 47 43 38 35 29 26 26 27 27 30
6 2 2 3 4 3 4 4 3 3 3 4 4 3 5 7 9 5 3 5 5 3 4 4 6 13 31 47 49 50 46 47 50 50 48 42 40 35 31 28 29 31 30 30
2 2 3 3 4 4 5 3 2 3 5 12 9 4 5 7 5 3 4 5 3 4 4 5 5 34 52 53 52 37 41 44 54 50 45 44 41 37 31 29 32 29 29 30
3 3 3 4 6 5 5 8 9 9 9 10 6 7 6 3 3 4 4 4 4 4 4 9 26 45 57 44 30 21 14 21 40 40 38 43 37 32 29 31 31 26 27 31
3 5 4 5 4 7 11 12 10 13 12 8 6 3 3 5 3 4 4 3 4 4 6 31 40 50 41 31 18 11 11 16 23 25 32 32 32 31 30 25 22 25 30 29
4 5 10 15 16 14 17 15 13 8 6 2 4 4 3 1 3 4 5 4 4 20 32 38 41 49 44 29 10 5 8 13 17 21 23 26 25 25 21 19 22 26 16 12
Wind_Direction
348 351 351 348 349 355 1 48 162 319 161 178 22 183 181 340 320 10 359 127 35 94 70 121 126 155 64 350 206 191 192 226 214 211 128 237 204 170 192 234 189 245 333 287
345 347 352 351 352 355 1 355 360 37 175 209 180 205 106 16 20 36 15 48 24 19 81 120 131 131 86 8 134 174 177 206 214 232 188 137 220 185 189 122 136 207 237 323
343 345 350 354 354 354 357 350 247 38 98 84 120 146 101 149 41 63 35 25 90 114 73 33 127 119 88 338 12 350 199 206 219 228 238 189 204 200 200 206 224 240 234 258
343 346 350 353 357 355 356 12 61 56 45 68 84 202 129 152 153 38 30 79 48 71 129 98 76 16 345 81 4 63 316 230 209 235 241 222 230 234 202 207 228 226 274 232
343 348 351 355 1 3 14 26 3 22 67 332 223 356 175 178 130 352 36 107 55 44 97 39 132 351 21 33 347 34 3 191 179 260 237 223 229 234 220 222 229 245 247 257
345 352 354 355 2 15 38 26 12 11 6 79 226 102 153 136 162 56 47 120 97 91 70 337 297 279 282 279 330 339 357 34 243 235 347 224 236 235 224 219 207 227 224 247
342 349 354 358 3 16 29 23 8 347 90 276 162 152 75 112 54 113 58 42 40 26 326 310 281 245 249 251 244 231 294 247 216 269 193 230 254 240 226 224 219 215 236 242
339 344 352 356 3 8 17 22 28 14 311 296 228 212 135 86 357 127 207 66 343 323 343 303 295 217 230 228 228 208 215 238 244 244 231 295 275 209 189 201 238 228 230 235
333 339 346 353 356 1 5 12 22 6 309 174 125 161 219 222 197 199 216 216 295 302 274 204 216 219 202 205 173 59 191 229 249 180 234 242 230 337 311 220 249 298 226 227
326 332 339 349 351 359 8 15 15 6 296 255 192 205 187 152 152 175 306 349 182 170 188 207 208 220 242 222 196 166 164 185 214 218 246 254 267 296 163 178 54 358 343 198
318 323 328 336 344 347 350 350 359 12 289 279 250 230 193 173 187 200 148 206 195 183 201 206 193 226 199 256 232 180 180 178 190 204 222 235 7 170 222 8 25 44 10 14
315 319 318 320 323 327 328 330 321 320 291 265 280 265 249 235 231 183 209 296 167 183 209 216 221 209 226 241 225 185 224 247 208 210 209 108 48 82 84 40 24 13 4 349
310 313 307 301 302 309 313 319 330 340 319 303 297 289 263 233 233 231 219 222 217 212 197 180 193 238 206 216 223 291 203 341 240 257 211 220 37 134 57 33 15 4 355 341
306 308 299 295 298 300 303 306 308 312 302 288 287 208 271 240 279 238 218 197 166 171 154 160 246 250 212 252 321 260 269 311 226 245 272 272 184 146 348 346 350 335 338 342
302 295 294 295 298 302 305 299 293 278 238 273 280 299 293 234 291 225 217 217 221 226 230 211 226 250 235 232 271 245 215 225 219 245 222 260 268 289 310 325 330 330 334 331
297 289 291 295 299 307 324 319 53 26 204 282 293 295 291 298 276 200 201 206 209 208 208 225 237 226 226 245 252 245 235 235 238 245 260 272 274 286 297 299 304 313 317 320
291 287 288 289 296 288 283 268 263 302 319 242 282 291 272 287 270 191 202 204 196 198 211 222 225 214 213 250 252 234 235 239 242 248 260 271 266 272 267 273 286 297 301 304
286 289 290 293 288 285 289 277 255 255 251 238 282 279 311 311 189 187 190 181 194 217 218 203 217 232 224 251 246 245 245 246 249 244 242 253 269 273 273 279 286 293 291 298
280 289 293 293 267 235 283 206 250 237 211 226 207 283 336 311 259 247 205 200 199 209 211 211 204 205 225 240 240 245 244 234 242 244 247 252 256 264 271 274 276 274 281 289
297 290 279 241 162 316 286 257 196 167 196 230 238 218 265 253 221 292 283 194 222 237 208 188 227 242 248 256 253 253 251 249 242 238 242 246 251 252 257 259 262 267 273 279
281 254 243 250 286 286 241 238 193 176 229 219 234 212 220 231 212 216 219 252 223 241 186 213 233 253 236 244 247 252 252 250 246 241 244 245 244 248 252 253 255 258 265 271
264 272 280 264 224 160 291 228 170 217 234 195 210 232 211 219 208 201 221 241 226 249 153 226 253 265 245 261 265 267 259 251 244 238 240 240 240 242 246 250 256 260 265 271
301 258 243 196 165 208 225 213 191 220 207 197 230 227 214 182 198 213 242 229 234 307 223 236 245 304 316 305 293 284 270 244 236 237 232 235 237 239 243 249 252 257 263 269
267 230 257 213 189 222 216 261 281 299 313 338 321 270 239 197 184 226 248 234 246 245 238 250 305 305 300 301 298 284 270 242 221 224 225 226 229 234 238 244 249 252 260 270
251 217 242 230 242 261 273 289 287 289 302 312 306 279 233 187 228 203 247 234 249 255 269 296 303 316 309 301 306 292 279 223 205 211 215 220 221 226 236 235 243 250 261 267
237 236 258 266 272 260 259 263 262 293 289 272 242 252 266 216 223 219 226 277 253 273 286 296 303 312 315 324 309 276 221 200 192 199 205 209 215 218 223 228 245 260 263 258
239 239 245 257 275 276 274 273 269 282 258 235 258 243 249 107 224 233 201 209 243 280 292 305 311 319 330 348 348 290 218 189 180 183 192 204 210 216 224 246 230 256 257 265